Regional Weather Roundup
Issued by NWS

Home | Current Version | Previous Version | Text Only | Print | Product List | Glossary Off
Versions: 1 2 3 4 5 6 7 8 9 10 11 12 13 14 15 16 17 18 19 20 21 22 23 24 25 26 27 28 29 30 31 32 33 34 35 36 37 38 39 40 41 42 43 44 45 46 47 48 49 50

000
ASUS45 KSLC 211610
RWRUT

UTAH REGIONAL WEATHER ROUNDUP
NATIONAL WEATHER SERVICE SALT LAKE CITY UT
1000 AM MDT THU AUG 21 2014

UTZ001>011-023>025-211700-

NORTHERN UTAH

CITY           SKY/WX    TMP DP  RH WIND       PRES   REMARKS
HILL AFB       PTSUNNY   64  54  68 E7        30.11S
LOGAN          CLOUDY    62  55  77 SW7       30.12S
OGDEN          LGT RAIN  65  55  70 CALM      30.10R
PROVO AIRPORT  PTSUNNY   66  50  55 SE9       30.13
SALT LAKE CITY CLOUDY    72  49  44 S8        30.08R
VERNAL         MOSUNNY   64  51  62 VRB3      30.18S
WENDOVER       CLOUDY    70  52  52 NE10      30.08S
HEBER CITY     PTSUNNY   59  52  77 CALM      30.18R
WEST JORDAN    CLOUDY    70  55  60 S14       30.11R

$$

UTZ012>022-026-027-211700-

SOUTHERN UTAH

CITY           SKY/WX    TMP DP  RH WIND       PRES   REMARKS
BRYCE CANYON   PTSUNNY   62  47  57 NW5       30.32S
CEDAR CITY     MOSUNNY   63  48  58 NE6       30.19R
MILFORD        SUNNY     71  47  42 S15       30.15R
MOAB/CYNLANDS  SUNNY     69  55  60 E3        30.12S
PRICE          MOSUNNY   67  48  50 CALM      30.20S
ST GEORGE      PTSUNNY   70  55  60 CALM      30.08R
KANAB            N/A     64  52  63 CALM      30.22

$$

REGIONAL REPORTS     COLORADO/ARIZONA

CITY           SKY/WX    TMP DP  RH WIND       PRES   REMARKS
CRAIG, CO      SUNNY     65  52  62 NE6       30.22S
GRAND JUNCTION MOSUNNY   69  48  47 SE6       30.16S
RIFLE          SUNNY     66  51  58 VRB3      30.20F
MONTROSE       SUNNY     69  46  43 CALM      30.23F
CORTEZ         SUNNY     71  43  36 VRB5      30.22S
PAGE, AZ       MOSUNNY   75  47  36 CALM      30.13R
GRAND CANYON   CLOUDY    61  55  81 CALM      30.30R
KINGMAN        MOSUNNY   81  47  30 E7        30.06S
FLAGSTAFF      CLOUDY    63  48  58 CALM      30.30S

$$

REGIONAL REPORTS    NEVADA/IDAHO/WYOMING

CITY           SKY/WX    TMP DP  RH WIND       PRES   REMARKS
LAS VEGAS, NV  MOSUNNY   82  47  29 S6        29.94S
ELY            PTSUNNY   66  44  45 S10       30.20S
ELKO           PTSUNNY   69  40  34 E3        30.07S
POCATELLO, ID  MOSUNNY   63  56  78 NE3       30.09F
BURLEY         PTSUNNY   63  56  78 CALM      30.06R
EVANSTON, WY   PTSUNNY   57  50  77 W9        30.23R
ROCK SPRINGS   PTSUNNY   57  45  64 CALM      30.22R

$$


USA.gov is the U.S. government's official web portal to all federal, state and local government web resources and services.